sat.trackr.live / text

‹ back to catalog

STARLINK-34835

NORAD 65336 · 2025-189P

PAYLOAD ACTIVE UNKNOWN

§ Identity

Operator
Country
US
Launch date
2025-08-27
Launch site
AFETR
Launch vehicle
Mass (kg)
RCS (m²)

Purposes: comms

External: N2YO · Heavens-Above · Gunter

§ Orbital elements

Epoch: 2026-09-20T11:53:10.317984Z

Period
93.85 min
Inclination
53.1583°
Eccentricity
0.0001081
Mean motion
15.34396533 rev/d
Perigee alt
462.0 km
Apogee alt
463.5 km
Semi-major
6,840.9 km
B*
8.7198e-4
RAAN
19.6768°
Arg perigee
83.3415°
Mean anomaly
276.7710°
Rev number
6,096

§ Raw data

STARLINK-348351 65336U 25189P   26263.49525831  .00029196  00000+0  87198-3 0  99962 65336  53.1583  19.6768 0001081  83.3415 276.7710 15.34396533 60964

JSON: /api/v1/satellites/65336 · /tle

For live sub-satellite position, see the globe view (requires WebGL).

§ Visibility from observer

Set your observer location to see the next 7 days of passes ≥ 10°. The values pass through the URL so the page stays shareable.

No JS? Fill the form by hand. The geolocation button needs JavaScript.